Theta_e
295 296 297 297 298 299 303 307 310 313 315 316 317 317 318 318 319 320 321 321 322 323 322 323 323 324 324 324 323 322 322 322 322 322 322 321 319 317 318 318 319 319 318 319 320 319 319 320 320 319 319 318 318 316 316 313 311 311 309 306 305 303
293 293 293 293 293 293 294 296 299 306 311 312 314 315 316 316 316 317 318 319 321 321 320 320 322 322 323 323 322 321 321 321 321 321 320 321 317 319 319 318 318 317 316 316 317 318 318 318 319 318 318 317 317 314 312 309 309 308 306 301 300 301
291 290 291 291 291 292 291 294 297 301 301 305 308 311 312 312 314 314 316 315 316 316 317 318 318 319 321 320 321 321 321 321 318 320 320 316 318 318 317 317 317 317 316 315 315 317 317 316 316 316 316 315 314 312 312 308 307 307 305 302 298 298
292 293 292 292 292 293 294 294 295 294 295 298 298 299 304 304 303 306 309 308 312 313 316 315 312 315 316 317 318 318 319 319 318 318 315 316 318 316 318 317 317 315 315 315 316 316 316 316 317 314 314 312 312 310 310 307 305 306 305 302 301 297
290 291 292 292 293 293 292 292 294 294 294 294 295 296 298 298 301 301 303 306 307 309 309 308 309 310 310 313 314 314 315 315 313 313 315 315 315 313 316 316 315 314 314 314 315 316 315 315 315 314 313 313 312 310 307 306 305 305 304 300 300 297
288 290 292 291 291 291 292 292 292 292 292 292 292 294 293 295 295 295 298 300 302 302 301 304 302 303 305 308 309 309 309 310 310 310 312 314 313 313 312 313 315 314 314 315 314 314 314 313 312 310 309 310 308 308 307 305 304 305 304 301 299 295
290 293 292 293 291 289 289 291 292 291 292 290 292 292 291 291 291 295 296 296 298 297 300 301 301 303 303 305 304 305 304 304 305 305 309 309 310 311 311 311 313 314 315 315 314 313 312 311 311 310 308 308 308 308 307 305 304 304 303 301 299 294
290 289 290 290 290 291 291 291 292 292 292 293 290 291 289 290 288 293 294 294 298 298 299 299 299 302 303 302 299 299 298 300 301 304 305 308 312 309 311 313 312 313 314 314 314 313 312 310 309 308 308 308 306 306 306 304 302 301 300 298 296 293
291 291 290 291 290 289 291 291 292 289 289 290 289 289 289 289 289 290 293 293 297 298 299 300 301 300 299 298 298 297 296 298 299 303 307 306 310 310 310 309 311 310 312 313 312 311 311 311 309 308 306 306 305 304 302 298 296 296 295 294 293 292
291 290 290 289 290 290 289 290 290 291 291 291 289 288 288 288 290 291 293 294 295 297 297 298 296 295 295 295 296 296 297 297 298 299 301 300 306 307 308 309 309 308 307 310 310 311 309 307 305 305 306 305 303 300 297 295 294 293 292 290 290 290
292 292 290 290 288 289 288 288 289 288 288 288 288 287 290 288 290 291 293 292 295 295 294 293 293 293 294 294 296 297 297 297 297 297 297 296 299 301 302 303 303 302 302 301 302 303 303 305 305 303 303 303 300 298 297 295 293 292 291 290 289 288
291 291 291 288 290 290 289 290 290 291 291 291 290 290 292 289 291 293 292 294 294 291 290 291 292 292 291 293 295 294 293 294 294 294 295 295 295 296 296 297 298 298 299 299 297 297 299 301 302 297 298 298 299 297 296 294 293 292 291 289 288 287
292 290 290 292 291 292 292 293 292 290 290 291 292 293 293 291 292 292 293 295 292 292 292 292 293 293 294 293 292 290 292 292 291 292 293 293 293 293 292 293 295 294 294 296 297 296 296 298 298 295 297 298 296 295 294 293 292 291 290 289 289 288
293 292 293 293 292 292 292 292 291 290 292 292 292 293 292 291 292 294 293 294 293 293 294 293 293 293 293 293 292 290 289 288 289 290 290 290 291 291 290 293 293 293 292 293 293 293 292 292 294 295 295 296 296 294 293 292 291 290 289 289 288 288
295 295 294 293 293 292 292 293 291 292 294 293 293 292 292 293 293 294 294 294 294 293 292 291 291 291 291 291 290 289 288 289 289 289 290 291 289 288 290 290 290 291 290 291 292 292 291 291 293 295 295 295 295 294 293 291 290 289 289 288 288 288
295 294 295 295 295 294 293 292 294 295 293 292 291 293 294 296 295 296 295 293 294 293 292 291 291 291 291 290 289 288 288 288 289 289 288 287 287 288 289 288 289 289 289 290 290 291 291 291 292 294 294 294 294 294 292 289 289 289 288 288 288 287
294 293 293 294 294 291 291 291 292 289 290 290 292 293 295 296 296 296 295 293 292 292 291 291 290 290 289 288 288 287 288 288 289 287 287 287 288 288 288 288 289 289 289 289 290 290 290 290 291 293 293 293 294 293 291 288 288 288 287 286 286 285
293 294 295 296 293 291 292 293 291 290 289 289 291 292 294 296 296 295 293 292 292 291 290 290 289 288 288 287 287 287 288 288 288 287 287 287 287 287 287 287 287 288 288 288 288 289 289 289 291 292 292 293 293 293 289 288 287 287 286 286 286 285
294 295 295 293 294 293 292 290 290 290 288 289 290 291 292 293 294 293 292 291 290 290 289 289 289 288 287 287 287 287 287 287 287 287 287 287 287 287 287 287 286 287 287 287 288 288 288 288 289 291 292 292 293 291 287 286 286 286 286 284 283 284
291 291 293 293 292 293 291 289 290 289 289 289 289 290 291 292 292 291 290 290 289 289 289 289 288 288 287 287 287 287 286 286 286 286 287 287 287 287 286 286 286 286 287 287 287 288 288 287 287 290 291 292 292 290 287 286 286 285 284 283 282 282
292 291 289 289 291 289 288 289 289 290 289 289 289 290 290 290 290 290 290 290 290 289 289 288 288 288 287 287 287 287 287 286 286 286 286 286 286 286 286 286 286 286 286 286 286 286 287 286 286 289 291 291 292 289 286 286 286 285 284 283 282 282
289 287 289 290 292 288 287 288 289 289 289 288 288 289 290 290 290 290 290 289 289 289 288 288 288 287 287 287 286 286 286 286 286 286 286 286 286 286 286 286 286 285 285 285 285 286 286 286 285 287 290 291 291 290 286 286 285 285 284 283 283 281
292 293 292 290 287 286 287 288 289 288 287 287 288 288 289 289 289 289 289 289 289 288 288 288 288 287 287 287 286 286 286 286 286 286 286 286 286 286 286 285 285 285 285 285 285 285 285 286 286 286 289 290 291 290 287 285 286 286 284 283 282 282
286 284 283 283 285 286 287 289 289 287 286 287 287 288 288 289 289 289 289 289 288 288 287 287 287 287 287 286 286 286 285 286 286 286 286 286 286 285 285 285 285 285 285 285 285 285 285 285 285 285 287 290 290 290 289 285 284 285 284 283 282 281
286 286 285 282 283 285 287 288 287 285 285 287 287 287 288 289 289 289 289 288 288 287 287 287 287 286 286 286 286 286 285 285 285 285 286 286 285 285 285 285 285 285 284 284 284 285 285 285 285 285 285 287 290 290 289 288 285 287 284 283 282 281
285 284 282 282 281 283 285 288 287 285 285 286 285 286 287 288 288 288 288 287 287 287 286 286 286 286 286 286 286 286 285 285 285 285 286 286 285 285 284 284 284 284 284 283 283 284 284 284 285 285 285 286 288 290 290 288 288 287 283 283 283 283
285 283 282 280 280 281 283 284 287 284 285 284 284 286 287 288 288 287 287 287 286 286 286 286 286 286 286 286 286 286 285 285 285 285 285 285 285 285 284 283 284 284 284 283 283 282 283 283 284 284 284 285 285 288 290 289 288 288 286 283 282 281
283 283 282 280 279 279 279 281 285 286 285 283 285 287 287 287 287 287 286 286 286 286 286 286 286 286 286 286 286 286 286 285 285 285 285 285 285 285 284 283 283 283 283 282 282 282 282 282 283 283 283 284 284 285 287 288 287 286 285 283 281 282
283 282 282 280 280 279 278 279 281 283 283 283 286 287 287 287 287 286 286 286 286 286 286 286 286 286 286 286 286 286 286 286 285 285 284 285 284 284 283 283 282 282 282 282 282 282 281 281 282 282 282 282 283 283 284 285 284 284 284 279 276 280
284 282 282 280 279 281 281 281 280 280 281 283 285 287 287 286 286 286 286 286 286 286 286 286 283 285 285 285 285 285 285 285 285 285 284 284 284 283 283 282 282 282 282 281 281 280 279 279 279 279 280 280 281 280 279 278 277 276 276 276 272 273
283 282 282 279 279 280 281 280 279 278 280 282 284 286 286 286 285 285 285 285 285 284 284 285 284 285 285 284 284 283 283 284 284 284 282 280 281 284 283 281 280 279 278 278 277 274 272 271 272 275 280 277 281 278 275 275 276 275 274 278 279 274
283 281 279 278 279 279 279 279 278 276 276 279 282 285 286 285 285 284 283 283 283 282 282 283 283 282 282 281 280 279 278 279 282 281 281 277 280 282 282 280 272 274 273 273 273 274 274 274 274 280 283 283 284 284 284 282 282 282 278 281 284 278
281 279 277 278 278 278 277 277 275 276 275 276 276 281 283 284 283 282 281 281 281 280 281 280 279 279 279 279 279 278 277 276 278 282 283 281 281 282 283 284 284 282 279 276 271 273 282 282 283 283 284 285 285 285 285 285 285 285 284 284 280 273
279 278 276 276 276 275 274 273 272 272 272 273 276 279 281 282 282 281 280 279 278 278 278 278 278 277 277 275 275 276 275 275 274 273 280 282 282 283 283 283 283 283 283 283 278 272 271 280 284 285 285 285 285 285 286 286 286 285 285 285 284 274
279 277 275 274 273 273 272 272 270 271 272 274 277 279 279 279 279 278 277 277 277 276 276 275 275 275 275 273 273 273 274 274 274 274 271 275 281 282 282 282 282 283 283 283 283 283 281 281 283 284 284 285 285 285 285 286 286 286 286 286 280 273
275 274 273 272 271 271 271 270 268 268 269 271 275 275 275 275 275 275 275 274 274 274 274 274 273 273 273 272 272 272 272 271 272 272 273 273 271 273 277 280 282 282 282 282 282 282 282 282 282 283 283 284 284 285 285 285 282 286 286 284 277 275
272 271 271 271 270 270 269 267 266 266 266 270 273 274 273 273 273 273 273 273 273 273 273 272 272 272 271 271 271 271 271 270 269 271 272 272 272 272 271 268 271 278 281 277 279 282 282 282 282 282 282 282 283 283 284 283 276 276 276 277 276 276
271 270 270 270 270 269 268 266 265 265 265 270 273 273 273 273 273 273 273 272 272 272 271 271 271 271 272 271 270 270 270 271 271 271 270 270 270 270 269 268 267 268 275 277 278 280 281 282 282 282 282 282 282 282 283 272 270 270 271 272 272 274
Wind_Speed
7 8 9 8 7 7 8 8 8 8 9 12 14 16 16 16 15 15 14 15 13 13 14 15 13 13 13 12 11 10 11 13 12 11 11 8 8 7 8 8 9 10 9 10 10 9 10 10 10 10 10 10 10 10 10 9 9 10 10 8 7 6
7 6 5 5 5 5 5 5 4 7 9 9 11 11 10 10 11 12 13 14 12 11 9 9 11 12 12 11 11 11 13 13 11 11 10 11 7 9 9 9 10 10 10 9 10 10 10 10 10 10 10 10 10 9 9 8 10 9 9 7 6 6
5 4 4 4 4 3 4 5 7 7 5 7 8 10 10 9 10 8 10 7 8 9 10 11 10 11 10 10 11 12 12 11 10 11 10 6 10 9 9 10 11 10 10 10 10 11 10 10 9 8 9 9 10 9 11 10 10 11 9 9 8 6
1 1 0 0 1 2 4 3 2 3 5 4 4 5 5 6 5 6 6 6 7 9 11 9 6 7 7 9 10 11 11 10 10 9 7 10 11 10 11 12 10 9 9 10 10 10 10 10 11 10 9 9 10 10 9 8 9 10 9 8 10 9
2 1 1 2 3 3 1 1 1 2 3 2 3 5 6 5 6 5 5 6 6 7 6 5 6 6 7 9 8 9 10 9 8 8 10 10 9 8 10 10 9 9 9 9 10 10 10 11 11 10 11 12 13 12 10 8 10 11 11 11 11 10
2 2 3 4 4 3 3 3 2 2 2 2 2 4 4 3 4 4 4 5 5 5 4 5 4 5 6 7 8 8 8 8 8 7 9 9 7 9 8 7 9 8 9 10 10 10 10 11 10 9 9 10 8 7 9 9 10 11 13 13 12 10
4 5 5 5 4 4 4 4 4 4 4 4 4 4 4 4 3 4 3 4 5 4 5 6 6 7 7 8 6 7 6 6 7 6 8 7 7 7 7 7 7 9 10 11 11 10 9 8 9 11 10 8 8 9 9 10 11 12 12 12 11 11
5 5 5 4 4 5 5 5 5 5 5 6 5 5 4 5 3 4 5 4 6 5 5 5 5 6 6 6 5 5 4 5 5 5 6 6 8 7 7 8 8 9 10 10 10 10 11 11 9 8 9 10 9 8 9 10 10 10 9 8 8 9
7 6 5 6 5 5 5 5 5 5 5 5 5 4 4 5 4 4 4 4 5 5 6 6 6 6 5 4 4 3 3 4 5 6 6 6 7 7 8 7 8 8 9 10 9 9 9 10 11 9 7 6 7 9 9 8 7 6 6 5 7 9
6 6 7 6 7 5 5 5 5 5 6 6 5 4 4 4 4 4 5 5 5 6 6 5 4 4 3 3 2 3 3 3 2 3 3 2 5 7 7 7 7 6 5 6 7 9 8 6 6 6 8 9 8 8 7 7 7 6 4 4 4 5
7 7 6 7 5 6 6 6 6 5 5 4 4 4 5 5 5 5 5 5 6 6 5 4 4 3 3 2 2 1 1 2 2 1 1 2 2 2 3 4 4 4 4 3 3 3 4 5 7 7 7 8 7 7 8 8 7 7 6 5 4 4
6 7 6 5 7 7 6 6 7 6 7 6 5 5 5 5 5 5 5 6 5 4 4 4 4 4 3 2 1 0 1 1 1 2 2 2 2 2 1 2 2 4 5 5 4 3 3 4 4 8 12 10 8 8 7 7 7 8 7 7 7 6
6 5 5 8 8 10 9 9 7 5 6 6 6 7 6 5 6 5 6 5 4 4 3 4 4 3 2 1 1 0 1 1 1 2 2 3 3 3 3 3 4 4 4 5 5 5 5 4 5 7 10 11 11 8 6 7 7 6 6 7 9 10
8 8 10 10 10 9 8 8 7 6 9 8 8 8 6 6 6 7 6 5 5 4 4 3 3 3 3 1 2 2 1 2 3 3 3 3 2 1 1 1 2 1 1 1 1 3 3 3 4 6 7 8 10 9 7 5 6 7 7 7 8 8
12 12 11 8 10 9 11 8 7 10 10 10 9 6 7 7 7 6 6 6 5 5 4 3 3 3 3 4 4 3 2 1 0 0 0 1 1 2 2 1 1 1 1 1 2 3 3 3 3 6 8 9 11 11 8 6 6 8 8 8 8 7
9 9 10 11 11 12 8 9 11 10 7 6 5 8 8 8 6 6 6 5 6 5 5 5 5 5 4 4 3 3 2 2 1 1 1 2 3 2 2 2 2 1 2 2 3 2 1 2 3 6 8 9 9 9 8 5 6 5 4 4 3 3
12 9 8 9 10 7 6 7 7 4 5 6 8 7 8 7 7 7 7 6 6 6 6 5 4 4 3 2 2 2 2 2 1 1 1 2 2 2 1 1 1 1 1 1 1 2 2 2 2 5 7 8 9 10 8 5 5 5 5 5 5 5
14 14 14 12 7 7 8 9 6 6 6 5 7 8 7 8 8 8 7 7 6 5 4 4 3 3 2 2 2 2 2 3 3 3 2 2 2 2 2 2 2 2 1 1 2 2 3 0 2 5 7 9 9 10 6 5 5 5 6 8 8 8
14 14 11 8 10 9 10 6 8 7 7 7 7 8 8 8 9 8 7 5 4 5 4 4 4 4 3 3 3 3 3 3 3 3 3 3 2 3 2 2 2 2 2 2 2 3 2 1 1 5 7 9 10 8 4 3 3 2 1 0 1 1
7 7 8 9 9 11 7 8 9 9 8 8 7 8 8 8 8 5 5 5 5 5 6 5 5 5 4 4 4 4 3 2 2 2 2 4 3 3 2 2 2 2 2 2 2 2 2 1 1 4 7 10 12 9 6 5 5 4 4 4 4 5
12 9 6 6 8 7 8 9 11 10 9 8 8 7 8 8 7 7 8 8 7 7 7 7 6 5 5 5 4 4 3 3 3 2 2 3 3 3 3 3 3 2 2 2 3 4 3 2 2 3 5 8 10 9 6 6 6 6 6 6 6 5
5 4 7 10 11 7 9 9 9 9 9 8 7 8 9 9 8 6 6 6 7 7 7 6 7 7 6 5 3 3 3 3 3 3 3 3 3 4 3 3 3 4 2 2 3 3 3 4 3 4 7 8 10 10 6 4 5 6 5 4 5 5
11 12 13 9 7 8 8 9 9 8 7 8 8 10 8 6 6 6 7 7 7 6 7 6 7 7 6 5 5 4 4 3 4 4 4 4 4 4 4 4 4 4 3 2 2 2 2 3 4 4 9 10 12 13 10 6 6 5 6 6 6 6
5 4 3 3 7 8 9 9 10 8 8 8 9 8 6 7 7 7 7 8 7 7 6 6 5 6 7 7 7 7 5 4 5 5 5 4 4 5 4 3 3 3 3 2 2 3 3 3 4 3 6 8 9 11 10 6 5 5 6 5 5 5
7 6 6 4 6 7 7 9 9 8 8 10 8 7 7 7 8 8 8 8 8 8 8 7 8 7 6 7 8 9 7 6 6 5 5 6 5 5 5 5 4 4 3 2 1 2 2 2 1 3 3 4 6 7 10 7 4 6 5 5 6 6
7 7 4 3 4 5 6 10 10 8 9 9 7 8 7 8 8 8 8 8 8 9 8 8 8 7 7 8 8 8 8 7 6 6 5 5 6 5 5 4 4 4 4 3 2 2 2 2 2 1 2 2 5 6 7 7 6 7 4 4 4 3
12 9 6 2 3 4 6 6 10 9 10 6 8 9 10 9 9 9 9 9 9 9 8 8 8 7 7 7 8 8 7 7 7 6 4 5 5 5 5 5 4 4 3 3 3 2 2 2 2 2 2 3 3 5 6 7 8 8 7 4 2 1
8 9 9 4 1 4 4 5 8 12 8 8 8 9 9 10 10 10 10 9 8 9 9 10 8 8 8 8 6 7 8 9 8 7 6 5 5 5 5 5 4 3 3 3 3 3 3 2 2 2 2 2 3 3 5 7 9 9 9 7 5 6
10 10 10 9 3 4 4 5 4 6 9 10 9 9 10 10 10 10 9 10 9 8 9 10 8 8 8 7 6 5 5 6 6 7 7 6 6 5 4 4 4 4 4 4 4 3 3 2 2 2 2 2 2 3 2 3 5 6 7 4 3 4
12 12 11 10 7 5 5 5 6 7 8 8 9 10 10 10 10 10 10 10 8 7 7 7 8 8 6 6 6 6 5 4 4 6 6 6 6 6 5 5 5 5 5 5 4 4 3 3 2 2 2 2 2 2 2 2 3 4 4 4 3 4
11 11 11 9 7 6 6 6 6 6 8 8 8 10 12 11 10 9 10 8 8 7 6 7 7 6 6 5 5 4 3 4 5 3 3 2 1 4 6 6 5 4 3 5 6 5 3 1 1 5 5 4 5 5 4 3 4 3 3 5 6 4
10 12 10 8 6 6 6 6 5 4 4 5 6 8 10 10 9 9 8 7 7 6 6 6 5 5 5 5 5 5 5 7 5 3 5 2 0 2 3 6 3 5 5 4 3 3 5 4 4 4 6 7 7 8 7 6 6 6 5 6 10 6
8 10 10 8 6 7 6 6 4 4 3 3 4 6 8 9 8 7 7 7 6 6 6 6 6 5 5 5 6 5 6 6 6 8 8 6 6 5 4 4 4 5 5 5 2 3 1 1 1 3 6 7 7 8 8 7 7 8 7 8 5 1
10 11 10 7 7 7 7 7 5 4 3 2 3 5 7 7 7 7 6 5 5 6 5 5 6 5 6 5 5 6 6 7 7 5 8 10 8 8 8 7 6 5 4 3 4 4 1 1 1 4 5 5 6 6 7 7 7 7 8 9 9 3
8 8 8 8 8 8 6 7 4 3 3 4 5 7 8 7 7 8 7 6 6 6 6 6 6 5 6 6 6 5 6 7 6 8 6 6 8 10 9 7 6 6 5 5 4 4 3 2 2 4 1 3 4 5 6 6 7 7 7 8 5 3
10 10 9 9 8 7 7 7 4 3 2 3 6 7 8 8 8 8 8 7 7 7 6 7 7 7 6 6 5 6 6 5 6 7 7 8 7 6 7 8 9 8 6 6 6 5 5 5 4 4 3 2 1 3 4 5 3 5 7 6 4 4
11 10 9 9 8 7 7 7 4 2 0 4 7 9 9 9 9 8 9 11 8 7 7 6 6 6 6 6 6 6 6 6 5 6 7 8 8 8 7 3 3 6 8 5 5 6 7 6 6 5 5 4 2 1 2 1 1 0 1 1 1 4
10 8 7 7 7 7 7 5 4 3 1 5 7 9 9 9 9 9 8 7 8 7 6 6 6 6 6 7 6 6 6 6 6 7 6 6 6 7 7 4 2 1 4 9 9 9 8 8 7 7 7 6 5 3 3 2 0 1 1 1 1 0
Wind_Direction
231 222 221 225 226 226 224 223 208 207 208 207 205 207 208 205 204 206 211 210 212 214 215 214 216 217 219 220 220 214 217 221 220 219 224 221 210 204 206 202 207 208 208 209 211 207 211 210 208 205 205 202 206 205 204 194 184 191 197 194 188 189
235 232 232 237 237 236 239 221 202 214 213 207 212 219 217 215 211 210 213 213 213 217 216 217 217 216 217 216 212 215 219 221 217 219 219 219 203 212 207 206 209 207 207 207 207 207 208 208 209 203 204 200 207 201 201 193 184 186 191 193 194 179
248 258 258 251 249 229 212 193 198 208 202 216 216 213 216 213 216 211 219 212 215 217 215 215 210 213 212 211 211 215 220 221 217 218 218 201 215 207 208 212 212 210 209 205 206 207 206 205 206 204 202 203 206 204 202 190 188 188 195 186 193 187
260 217 179 190 181 206 195 206 205 213 212 227 224 232 230 218 219 205 211 199 206 211 219 218 208 208 203 207 211 216 218 219 217 214 204 210 216 202 211 213 212 208 205 205 207 209 207 206 207 203 205 207 210 207 201 188 189 195 195 187 195 190
247 243 247 228 215 224 231 267 207 197 202 196 201 200 227 206 213 205 200 202 206 218 220 212 211 206 207 209 214 217 217 218 216 205 209 215 214 207 212 212 207 204 201 204 206 207 208 207 208 205 204 202 199 199 200 195 192 194 194 193 199 192
294 278 250 256 265 264 262 264 277 275 258 239 212 205 212 204 205 196 199 212 219 224 220 220 220 211 216 218 220 220 219 216 215 208 215 216 208 207 213 208 205 200 199 204 205 205 205 205 201 196 202 209 211 213 202 194 198 203 201 196 192 184
246 234 228 230 238 252 262 260 252 247 253 246 234 235 222 217 195 163 167 176 195 204 205 214 204 207 214 220 222 228 226 225 220 212 215 211 210 209 202 207 200 199 199 201 201 204 207 205 200 200 197 194 194 201 207 209 210 210 207 198 190 183
245 254 249 245 234 225 228 233 233 234 234 235 223 222 230 231 204 189 178 180 178 188 190 191 186 197 202 202 207 218 223 230 227 219 221 205 208 204 201 197 198 197 200 202 202 200 203 202 196 192 196 201 205 212 215 215 215 215 208 187 180 176
250 242 248 243 243 231 227 224 229 228 231 246 243 225 216 216 187 187 176 176 184 179 194 186 190 184 181 179 190 192 193 202 207 202 209 202 200 196 197 200 199 201 200 203 201 202 200 204 205 205 203 202 203 207 210 208 202 199 203 194 185 179
244 242 237 236 239 241 243 236 229 223 215 227 228 219 208 190 165 174 180 179 192 197 198 198 183 177 179 176 180 203 219 228 217 209 205 199 207 191 193 196 199 212 215 213 206 208 204 194 189 195 203 202 200 200 202 193 190 187 185 176 177 180
224 228 230 229 224 229 234 237 241 244 249 240 232 206 206 185 166 176 180 187 195 205 193 183 181 150 149 162 170 197 234 237 243 243 212 173 213 230 203 193 200 193 208 231 228 225 213 204 203 201 199 199 197 190 192 184 179 179 177 172 167 166
217 221 220 223 215 219 223 227 226 220 216 223 219 210 210 168 185 173 184 192 200 187 179 165 145 134 115 104 127 188 200 202 187 174 179 196 207 205 186 179 187 184 197 208 223 215 205 215 215 204 201 195 192 189 187 179 183 181 174 168 170 176
221 223 217 220 213 212 209 214 215 207 212 215 209 210 199 183 182 191 184 195 178 165 149 142 145 133 138 137 103 95 170 187 156 157 170 177 171 171 161 161 175 192 199 207 210 212 212 219 224 215 200 192 181 175 177 183 183 175 172 176 180 189
218 213 214 216 217 212 207 208 205 193 213 205 206 203 179 187 190 188 192 183 171 170 163 157 149 169 197 198 226 214 184 150 154 158 163 159 159 157 110 142 190 173 159 157 166 202 219 231 217 184 190 187 183 178 179 175 169 172 179 184 189 188
211 208 211 209 212 209 215 194 175 206 207 200 202 166 183 193 191 187 186 183 178 186 180 186 191 199 201 213 215 200 166 141 64 59 77 123 83 86 96 91 92 92 76 126 176 217 228 233 229 200 194 190 185 181 170 174 177 180 188 185 184 181
215 213 209 206 209 208 199 183 194 207 194 183 162 177 185 186 193 190 190 181 188 184 187 189 191 197 203 201 191 164 171 153 166 132 57 70 68 79 83 95 114 116 145 171 193 215 250 227 233 192 190 190 183 173 168 169 173 175 175 173 159 157
210 210 221 231 225 208 169 198 209 159 154 166 172 181 178 188 185 194 190 191 190 182 185 185 184 191 186 168 149 142 152 162 123 101 92 102 109 115 116 119 134 130 141 146 146 161 196 221 192 187 180 176 171 167 161 156 154 158 154 136 138 148
203 202 212 218 200 195 192 200 174 161 172 162 171 175 185 184 190 195 186 193 189 183 171 166 167 160 145 138 127 137 149 135 143 143 129 116 111 107 111 89 96 117 109 109 133 159 221 265 175 180 176 170 169 161 149 154 160 161 163 181 190 190
198 205 205 195 195 189 202 179 158 157 147 166 180 176 183 185 197 199 190 183 167 161 154 155 153 149 144 141 143 156 163 163 147 141 141 128 125 118 111 125 128 137 139 143 157 175 193 142 158 179 172 169 166 154 149 141 134 139 177 28 40 108
212 218 197 201 196 200 178 158 159 156 163 174 173 176 185 191 201 179 167 168 155 151 151 151 150 149 146 151 171 176 165 134 119 135 146 144 143 133 135 133 99 81 115 143 152 164 178 148 154 179 181 174 172 159 151 143 143 136 141 142 162 173
204 202 188 188 199 197 169 162 156 155 168 170 174 179 183 195 184 171 173 171 165 160 156 152 149 151 155 168 177 165 161 163 155 130 112 103 108 111 114 111 112 104 97 128 146 137 143 130 120 163 177 177 174 158 152 155 160 166 171 171 183 186
133 156 185 197 207 166 160 155 155 160 161 166 164 178 194 192 183 170 156 148 153 156 156 157 156 155 159 165 149 138 140 127 115 127 121 114 121 126 130 130 136 142 157 160 147 141 144 138 142 159 168 173 176 165 156 156 162 184 177 176 180 183
185 192 195 194 159 153 155 153 149 158 157 156 170 198 192 168 155 153 151 149 150 152 154 154 156 156 156 149 141 129 126 136 141 140 138 135 132 132 135 139 144 135 143 147 125 126 129 148 154 178 178 177 179 170 165 176 185 179 174 182 188 196
148 129 123 169 157 154 155 153 152 152 154 163 194 192 153 153 153 149 147 149 149 148 151 154 151 150 145 136 136 138 141 151 153 153 151 145 144 143 139 139 136 133 141 145 150 149 148 158 162 165 192 189 186 182 174 177 193 175 168 178 202 203
160 165 157 162 162 159 160 150 150 157 160 185 190 157 157 150 152 148 148 148 149 152 150 148 146 143 143 146 150 148 151 157 154 154 149 147 145 145 149 153 153 147 142 125 103 102 106 112 135 157 174 204 196 191 190 185 168 155 160 184 206 209
147 144 156 153 155 160 160 155 155 164 173 192 156 155 152 150 146 146 147 151 151 148 147 147 148 148 151 153 151 149 149 156 156 152 157 155 153 151 150 155 151 147 150 156 127 77 60 55 74 139 167 196 209 208 191 184 164 161 187 191 223 207
160 150 138 144 143 162 164 163 156 162 176 170 151 158 156 149 147 149 152 153 151 148 148 144 147 151 152 156 153 149 153 152 154 151 159 155 153 159 158 163 165 157 151 137 142 120 91 83 109 114 160 169 202 212 195 179 176 174 155 187 211 168
137 145 147 128 158 158 164 166 158 165 173 150 159 154 152 146 147 150 152 151 150 149 147 143 145 151 155 157 163 160 162 161 163 158 157 158 164 164 153 150 147 139 139 139 128 146 157 167 146 129 96 111 129 173 195 186 185 183 184 183 181 190
149 159 159 151 180 161 156 158 160 147 144 157 155 151 145 145 147 146 148 150 148 148 149 149 153 153 156 158 154 155 158 157 152 154 157 161 157 150 144 144 147 148 151 159 166 161 168 165 165 137 136 124 137 151 155 156 165 167 170 157 145 159
162 164 166 164 163 161 149 143 142 144 145 148 152 145 143 145 153 152 152 151 149 152 152 147 148 147 146 153 148 147 149 151 155 155 162 166 161 154 158 157 165 172 173 173 163 148 149 179 178 190 176 193 167 161 142 158 157 163 159 157 156 148
163 167 163 150 141 145 140 131 132 143 146 150 150 150 149 152 150 149 148 149 145 147 143 139 150 150 144 141 131 100 106 147 154 137 95 27 58 157 158 171 172 175 174 153 154 148 165 213 250 245 210 191 187 170 172 187 202 185 180 178 153 104
161 155 137 124 140 128 124 119 113 118 129 139 148 150 151 152 149 146 146 142 140 133 135 135 133 124 125 127 124 110 63 33 63 127 137 130 88 132 139 134 167 185 161 150 200 165 155 188 218 230 197 199 197 199 196 199 195 192 181 179 175 148
139 122 90 123 121 116 113 108 90 94 84 114 145 151 147 146 144 138 135 139 141 141 133 130 126 126 125 128 129 123 114 91 51 48 67 103 105 100 96 80 99 130 153 141 183 275 285 223 203 191 196 198 201 205 213 214 209 206 194 184 145 122
141 139 110 120 117 115 106 96 60 57 41 69 103 122 133 137 141 140 133 118 116 117 120 119 123 128 128 126 125 128 130 128 111 65 42 52 69 76 81 80 86 103 119 94 115 108 37 17 254 220 209 205 207 209 215 218 216 213 199 195 167 160
133 123 110 103 110 106 105 100 58 46 64 92 114 122 122 122 121 123 119 118 122 123 124 125 129 134 133 142 137 137 141 140 144 130 100 53 61 70 69 68 73 76 81 87 82 97 125 132 66 62 78 200 207 209 212 214 219 215 208 197 185 169
109 106 100 91 98 106 104 90 39 43 60 117 119 120 121 118 118 121 130 133 134 132 135 138 142 141 143 144 141 144 139 135 133 130 132 120 103 72 54 51 59 70 77 82 90 89 83 80 78 68 54 79 175 209 210 207 218 224 217 200 190 182
108 94 95 107 108 106 93 73 8 346 287 125 121 118 114 114 116 116 116 122 129 137 140 141 138 138 138 137 139 138 135 134 132 134 133 137 134 130 117 105 38 40 59 72 68 73 75 73 73 72 73 59 66 111 220 169 98 125 342 324 124 181
97 98 109 110 113 106 93 63 7 348 43 121 122 117 118 119 120 121 123 121 121 124 128 132 134 137 136 135 134 131 127 128 127 123 125 122 122 124 125 102 64 53 26 52 39 34 55 66 67 68 64 61 59 46 88 76 85 112 247 241 304 146